Change the Weather History Date:

Sunday, October 14, 2012

  Actual Average Record
Temperature  
Mean Temperature 56 °F -  
Max Temperature 67 °F 69 °F 89 °F (1958)
Min Temperature 45 °F 41 °F 24 °F (1969)
Degree Days  
Heating Degree Days 9    
Growing Degree Days 6 (Base 50)    
Moisture  
Dew Point 44 °F    
Average Humidity 65    
Maximum Humidity 91    
Minimum Humidity 34    
Precipitation  
Precipitation 0.20 in - - ()
Sea Level Pressure  
Sea Level Pressure 29.87 in    
Wind  
Wind Speed 12 mph (NW)    
Max Wind Speed 25 mph    
Max Gust Speed 33 mph    
Visibility 10 miles    
Events Rain , Thunderstorm    
Averages and records for this station are not official NWS values.
T = Trace of Precipitation, MM = Missing Value Source: NWS Daily Summary

Daily Weather History Graph

Daily Weather History Graph

Search for Another Location

Airport or City:

Trip Planner

Search our weather history database for the weather conditions in past years. The results will help you decide how hot, cold, wet, or windy it might be!

Date:

Astronomy

Oct. 14, 2012 Rise Set
Actual Time 7:37 AM CDT 6:45 PM CDT
Civil Twilight 7:09 AM CDT 7:13 PM CDT
Nautical Twilight 6:37 AM CDT 7:45 PM CDT
Astronomical Twilight 6:05 AM CDT 8:17 PM CDT
Moon 6:37 AM CDT (10/14) 6:06 PM CDT (10/14)
Length of Visible Light 12h 04m
Length of Day
11h 08m
Waning Crescent, 1% of the Moon is Illuminated
Oct 14
Waning Crescent
Oct 15
New
Oct 21
First Quarter
Oct 29
Full
Nov 6
Last Quarter

Hourly Weather History & Observations

Time (CDT) Temp. Windchill Dew Point Humidity Pressure Visibility Wind Dir Wind Speed Gust Speed Precip Events Conditions
12:15 AM 63.9 °F - 58.3 °F 82% 29.63 in 10.0 mi NNW 10.4 mph - N/A   Overcast
12:35 AM 63.9 °F - 57.6 °F 80% 29.63 in 10.0 mi NNW 9.2 mph 16.1 mph N/A   Overcast
12:55 AM 61.5 °F - 57.2 °F 86% 29.63 in 10.0 mi NW 11.5 mph - N/A Thunderstorm Thunderstorm
1:15 AM 60.4 °F - 55.8 °F 85% 29.64 in 10.0 mi NW 13.8 mph 19.6 mph N/A Thunderstorm Overcast
1:35 AM 59.9 °F - 54.5 °F 82% 29.65 in 10.0 mi NW 10.4 mph 18.4 mph N/A Thunderstorm Overcast
1:55 AM 59.9 °F - 54.7 °F 83% 29.67 in 10.0 mi NW 10.4 mph - N/A Thunderstorm Overcast
2:35 AM 59.0 °F - 55.0 °F 87% 29.68 in 7.0 mi NNW 11.5 mph 16.1 mph 0.09 in Rain , Thunderstorm Heavy Thunderstorms and Rain
2:55 AM 58.3 °F - 55.6 °F 91% 29.69 in 7.0 mi NNW 8.1 mph - 0.19 in Rain , Thunderstorm Rain
3:15 AM 58.5 °F - 55.0 °F 88% 29.69 in 10.0 mi NW 11.5 mph - 0.01 in Thunderstorm Overcast
3:35 AM 58.1 °F - 53.8 °F 86% 29.70 in 10.0 mi NNW 12.7 mph 18.4 mph 0.01 in Thunderstorm Thunderstorm
3:55 AM 57.2 °F - 52.7 °F 85% 29.71 in 10.0 mi NNW 10.4 mph 19.6 mph 0.01 in   Scattered Clouds
4:15 AM 55.9 °F - 51.8 °F 86% 29.72 in 10.0 mi NNW 16.1 mph 20.7 mph N/A   Clear
4:35 AM 55.4 °F - 51.1 °F 85% 29.73 in 10.0 mi NNW 12.7 mph 20.7 mph N/A Thunderstorm Clear
4:55 AM 54.5 °F - 50.9 °F 88% 29.74 in 10.0 mi NNW 11.5 mph - N/A   Clear
5:15 AM 53.8 °F - 50.4 °F 88% 29.74 in 10.0 mi NW 15.0 mph 20.7 mph N/A   Clear
5:35 AM 53.6 °F - 49.6 °F 86% 29.75 in 10.0 mi NW 12.7 mph - N/A   Clear
5:55 AM 53.1 °F - 49.3 °F 87% 29.77 in 10.0 mi NW 13.8 mph - N/A   Clear
6:15 AM 52.7 °F - 48.2 °F 85% 29.78 in 10.0 mi NW 15.0 mph 19.6 mph N/A   Clear
6:35 AM 51.8 °F - 47.7 °F 86% 29.80 in 10.0 mi NW 12.7 mph 17.3 mph N/A   Clear
6:55 AM 51.8 °F - 46.9 °F 83% 29.81 in 10.0 mi WNW 15.0 mph - N/A   Clear
7:15 AM 51.6 °F - 46.2 °F 82% 29.81 in 10.0 mi NW 13.8 mph - N/A   Clear
7:35 AM 51.1 °F - 44.8 °F 79% 29.83 in 10.0 mi WNW 15.0 mph - N/A   Clear
7:55 AM 49.8 °F - 43.7 °F 79% 29.84 in 10.0 mi NW 17.3 mph 23.0 mph N/A   Clear
8:15 AM 49.1 °F - 42.3 °F 77% 29.86 in 10.0 mi WNW 16.1 mph 23.0 mph N/A   Clear
8:35 AM 48.2 °F - 41.7 °F 78% 29.87 in 10.0 mi NW 13.8 mph - N/A   Clear
8:55 AM 48.6 °F - 41.9 °F 78% 29.88 in 10.0 mi NW 15.0 mph - N/A   Clear
9:15 AM 50.4 °F - 41.9 °F 73% 29.89 in 10.0 mi NW 16.1 mph - N/A   Clear
9:35 AM 51.8 °F - 40.8 °F 66% 29.89 in 10.0 mi NW 21.9 mph 28.8 mph N/A   Clear
9:55 AM 53.1 °F - 41.0 °F 64% 29.90 in 10.0 mi NW 21.9 mph - N/A   Clear
10:15 AM 54.5 °F - 39.6 °F 57% 29.90 in 10.0 mi NW 16.1 mph 27.6 mph N/A   Clear
10:35 AM 55.9 °F - 40.3 °F 56% 29.91 in 10.0 mi NW 16.1 mph 23.0 mph N/A   Clear
10:55 AM 57.4 °F - 40.6 °F 54% 29.92 in 10.0 mi NW 18.4 mph - N/A   Clear
11:15 AM 58.3 °F - 39.6 °F 50% 29.92 in 10.0 mi NW 19.6 mph 29.9 mph N/A   Clear
11:35 AM 59.9 °F - 40.3 °F 48% 29.93 in 10.0 mi NW 21.9 mph 28.8 mph N/A   Clear
11:55 AM 60.8 °F - 39.4 °F 45% 29.93 in 10.0 mi NNW 24.2 mph 33.4 mph N/A   Clear
12:15 PM 61.7 °F - 39.6 °F 44% 29.93 in 10.0 mi NNW 17.3 mph 33.4 mph N/A   Clear
12:35 PM 63.0 °F - 39.7 °F 42% 29.93 in 10.0 mi NW 23.0 mph 31.1 mph N/A   Clear
12:55 PM 63.3 °F - 39.6 °F 42% 29.94 in 10.0 mi NW 25.3 mph 29.9 mph N/A   Clear
1:15 PM 64.4 °F - 39.6 °F 40% 29.94 in 10.0 mi NW 23.0 mph 28.8 mph N/A   Clear
1:35 PM 62.8 °F - 38.7 °F 41% 29.94 in 10.0 mi NW 19.6 mph 28.8 mph N/A   Clear
1:55 PM 65.3 °F - 38.5 °F 37% 29.94 in 10.0 mi NW 21.9 mph 26.5 mph N/A   Clear
2:15 PM 65.8 °F - 38.7 °F 37% 29.95 in 10.0 mi NW 24.2 mph 28.8 mph N/A   Clear
2:35 PM 66.9 °F - 38.8 °F 36% 29.94 in 10.0 mi NW 21.9 mph 29.9 mph N/A   Clear
2:55 PM 66.2 °F - 37.9 °F 35% 29.95 in 10.0 mi NW 21.9 mph - N/A   Clear
3:15 PM 67.1 °F - 38.3 °F 35% 29.94 in 10.0 mi WNW 24.2 mph - N/A   Clear
3:35 PM 67.1 °F - 38.1 °F 34% 29.94 in 10.0 mi NW 17.3 mph 25.3 mph N/A   Clear
3:55 PM 67.1 °F - 37.8 °F 34% 29.95 in 10.0 mi NW 18.4 mph - N/A   Clear
4:15 PM 67.3 °F - 38.3 °F 35% 29.94 in 10.0 mi NW 15.0 mph 27.6 mph N/A   Clear
4:35 PM 67.5 °F - 38.1 °F 34% 29.95 in 10.0 mi NW 18.4 mph - N/A   Clear
4:55 PM 67.5 °F - 38.3 °F 34% 29.95 in 10.0 mi NW 18.4 mph 21.9 mph N/A   Clear
5:15 PM 67.1 °F - 38.3 °F 35% 29.96 in 10.0 mi NW 13.8 mph - N/A   Clear
5:35 PM 66.4 °F - 38.5 °F 36% 29.96 in 10.0 mi NW 11.5 mph - N/A   Clear
5:55 PM 65.3 °F - 38.8 °F 38% 29.96 in 10.0 mi WNW 9.2 mph - N/A   Clear
6:15 PM 63.5 °F - 39.4 °F 41% 29.96 in 10.0 mi WNW 9.2 mph - N/A   Clear
6:35 PM 60.4 °F - 40.1 °F 47% 29.96 in 10.0 mi WNW 6.9 mph - N/A   Clear
6:55 PM 56.5 °F - 42.1 °F 59% 29.96 in 10.0 mi Calm Calm - N/A   Clear
7:15 PM 56.3 °F - 41.7 °F 58% 29.96 in 10.0 mi Calm Calm - N/A   Clear
7:35 PM 58.1 °F - 40.6 °F 52% 29.96 in 10.0 mi Calm Calm - N/A   Clear
7:55 PM 54.3 °F - 42.4 °F 64% 29.97 in 10.0 mi Calm Calm - N/A   Clear
8:15 PM 55.2 °F - 41.0 °F 59% 29.97 in 10.0 mi Calm Calm - N/A   Clear
8:35 PM 53.8 °F - 41.2 °F 62% 29.97 in 10.0 mi Calm Calm - N/A   Clear
8:55 PM 52.0 °F - 41.7 °F 68% 29.97 in 10.0 mi Calm Calm - N/A   Clear
9:15 PM 51.3 °F - 42.3 °F 71% 29.98 in 10.0 mi Calm Calm - N/A   Clear
9:35 PM 50.5 °F - 43.2 °F 76% 29.98 in 10.0 mi Calm Calm - N/A   Clear
9:55 PM 49.5 °F - 43.2 °F 79% 29.98 in 10.0 mi Calm Calm - N/A   Clear
10:15 PM 49.6 °F - 43.3 °F 79% 29.98 in 10.0 mi Calm Calm - N/A   Clear
10:35 PM 47.5 °F - 42.1 °F 82% 29.98 in 10.0 mi Calm Calm - N/A   Clear
10:55 PM 46.8 °F - 41.2 °F 81% 29.99 in 10.0 mi Calm Calm - N/A   Clear
11:15 PM 45.3 °F - 41.4 °F 86% 29.99 in 10.0 mi Calm Calm - N/A   Clear
11:35 PM 46.6 °F - 41.0 °F 81% 29.99 in 10.0 mi Calm Calm - N/A   Clear
11:55 PM 46.2 °F 45.0 °F 40.5 °F 80% 29.99 in 10.0 mi WNW 3.5 mph - N/A   Scattered Clouds